Left ArrowRight Arrow

44.89941, -97.11507

Hourly Observations for April 22, 2018

Temp ( °F °C ) Dew Point ( °F °C ) Humidity (%) Winds ( mph kmh ) Pressure ( in mb ) Visibility ( mi km ) Precip ( " mm )
12:53 am 00:53 Clear 37 2.8 29 -1.7 73 73 SSE 5 7 30.32 1027 10 16 0.00 0.00
1:53 am 01:53 Clear 37 2.8 28 -2.2 70 70 SSE 6 9 30.31 1027 10 16 0.00 0.00
2:53 am 02:53 Clear 35 1.7 28 -2.2 76 76 SSE 5 7 30.29 1026 10 16 0.00 0.00
3:53 am 03:53 Clear 35 1.7 28 -2.2 76 76 Calm 30.29 1026 10 16 0.00 0.00
4:53 am 04:53 Clear 34 1.1 28 -2.2 79 79 Calm 30.30 1026 10 16 0.00 0.00
5:53 am 05:53 Clear 31 -0.6 28 -2.2 89 89 Calm 30.31 1026 10 16 0.00 0.00
6:53 am 06:53 Cloudy 35 1.7 31 -0.6 85 85 SSE 5 7 30.32 1027 10 16 0.00 0.00
7:53 am 07:53 Cloudy 38 3.3 33 0.6 83 83 SSE 7 11 30.32 1027 10 16 0.00 0.00
8:53 am 08:53 Cloudy 40 4.4 35 1.7 83 83 SSE 8 13 30.33 1027 10 16 0.00 0.00
9:53 am 09:53 Sunny 47 8.3 35 1.7 63 63 SSE 9 15 30.31 1026 10 16 0.00 0.00
10:53 am 10:53 Sunny 51 10.6 38 3.3 61 61 SSE 10 17 30.30 1026 10 16 0.00 0.00
11:53 am 11:53 Sunny 55 12.8 37 2.8 51 51 S 14 22 30.30 1026 10 16 0.00 0.00
12:53 pm 12:53 Sunny 56 13.3 35 1.7 46 46 S 12 19 30.29 1026 10 16 0.00 0.00
1:53 pm 13:53 Sunny 58 14.4 36 2.2 44 44 S 13 20 30.26 1025 10 16 0.00 0.00
2:53 pm 14:53 Sunny 58 14.4 37 2.8 46 46 SSE 14 22 30.25 1024 10 16 0.00 0.00
3:53 pm 15:53 Sunny 59 15 39 3.9 48 48 SSE 13 20 30.23 1024 10 16 0.00 0.00
4:53 pm 16:53 Sunny 58 14.4 40 4.4 51 51 S 15 24 30.23 1024 10 16 0.00 0.00
5:53 pm 17:53 Sunny 58 14.4 39 3.9 50 50 SSE 14 22 30.22 1024 10 16 0.00 0.00
6:53 pm 18:53 Sunny 56 13.3 39 3.9 53 53 SSE 10 17 30.22 1023 10 16 0.00 0.00
7:53 pm 19:53 Sunny 51 10.6 41 5 69 69 SE 9 15 30.22 1023 10 16 0.00 0.00
8:53 pm 20:53 Clear 48 8.9 39 3.9 71 71 SE 8 13 30.23 1024 10 16 0.00 0.00
9:53 pm 21:53 Clear 45 7.2 38 3.3 77 77 SE 8 13 30.23 1024 10 16 0.00 0.00
10:53 pm 22:53 Clear 45 7.2 37 2.8 74 74 SSE 7 11 30.22 1024 10 16 0.00 0.00
11:53 pm 23:53 Clear 42 5.6 37 2.8 82 82 SSE 7 11 30.22 1023 10 16 0.00 0.00

Powered by Vaisala Xweather